Athens, GA

9:06 PM EST on February 21, 2017 (GMT -0500)
Athens / Epps

Weather History for KAHN - May, 2013

Change the Weather History Date:

Tuesday, May 28, 2013

  Actual Average Record
Temperature  
Mean Temperature 75 °F 73 °F  
Max Temperature 87 °F 85 °F 97 °F (1914)
Min Temperature 63 °F 62 °F 43 °F (1925)
Cooling Degree Days 10 9  
Month to date cooling degree days 109 155  
Year to date cooling degree days 151 213  
Growing Degree Days 25 (Base 50)    
Moisture  
Dew Point 60 °F    
Average Humidity 66    
Maximum Humidity 87    
Minimum Humidity 44    
Precipitation  
Precipitation 0.00 in 0.10 in 4.48 in (1973)
Month to date precipitation 3.63 2.70  
Year to date precipitation 23.08 18.81  
Sea Level Pressure  
Sea Level Pressure 30.18 in    
Wind  
Wind Speed 4 mph (SSE)    
Max Wind Speed 10 mph    
Max Gust Speed 15 mph    
Visibility 10 miles    
Events      
T = Trace of Precipitation, MM = Missing Value Source: NWS Daily Summary

Daily Weather History Graph

Daily Weather History Graph

Search for Another Location

Airport or City:

Trip Planner

Search our weather history database for the weather conditions in past years. The results will help you decide how hot, cold, wet, or windy it might be!

Date:

Astronomy

May. 28, 2013 Rise Set
Actual Time 6:24 AM EDT 8:37 PM EDT
Civil Twilight 5:56 AM EDT 9:05 PM EDT
Nautical Twilight 5:21 AM EDT 9:40 PM EDT
Astronomical Twilight 4:43 AM EDT 10:18 PM EDT
Moon No Moon Rise 10:07 AM EDT (5/28)
Length of Visible Light 15h 09m
Length of Day
14h 12m
Waning Gibbous, 83% of the Moon is Illuminated
May 28
Waning Gibbous
May 31
Last Quarter
Jun 8
New
Jun 16
First Quarter
Jun 23
Full

Hourly Weather History & Observations

Time (EDT) Temp. Heat Index Dew Point Humidity Pressure Visibility Wind Dir Wind Speed Gust Speed Precip Events Conditions
12:51 AM 70.0 °F - 57.9 °F 65% 30.16 in 10.0 mi SSE 4.6 mph - N/A   Clear
1:51 AM 70.0 °F - 59.0 °F 68% 30.16 in 10.0 mi South 6.9 mph - N/A   Clear
2:51 AM 68.0 °F - 59.0 °F 73% 30.15 in 10.0 mi South 4.6 mph - N/A   Clear
3:51 AM 66.9 °F - 57.9 °F 73% 30.15 in 10.0 mi South 5.8 mph - N/A   Clear
4:51 AM 66.0 °F - 59.0 °F 78% 30.15 in 10.0 mi South 3.5 mph - N/A   Clear
5:51 AM 64.0 °F - 59.0 °F 84% 30.17 in 10.0 mi Calm Calm - N/A   Clear
6:51 AM 64.0 °F - 60.1 °F 87% 30.19 in 9.0 mi SSW 3.5 mph - N/A   Clear
7:51 AM 64.0 °F - 60.1 °F 87% 30.22 in 8.0 mi Calm Calm - N/A   Clear
8:51 AM 71.1 °F - 62.1 °F 73% 30.21 in 9.0 mi Variable 3.5 mph - N/A   Clear
9:51 AM 73.9 °F - 61.0 °F 64% 30.22 in 10.0 mi Variable 5.8 mph - N/A   Clear
10:51 AM 78.1 °F - 61.0 °F 56% 30.22 in 10.0 mi Calm Calm - N/A   Clear
11:51 AM 79.0 °F - 57.9 °F 48% 30.22 in 10.0 mi Calm Calm - N/A   Clear
12:51 PM 82.0 °F 82.4 °F 60.1 °F 47% 30.21 in 10.0 mi East 4.6 mph - N/A   Clear
1:51 PM 82.9 °F 83.3 °F 61.0 °F 47% 30.18 in 10.0 mi Variable 5.8 mph - N/A   Clear
2:51 PM 82.9 °F 83.3 °F 61.0 °F 47% 30.17 in 10.0 mi Calm Calm - N/A   Partly Cloudy
3:51 PM 84.0 °F 84.4 °F 61.0 °F 46% 30.15 in 10.0 mi SE 5.8 mph - N/A   Partly Cloudy
4:51 PM 84.9 °F 85.0 °F 61.0 °F 44% 30.13 in 10.0 mi Variable 5.8 mph - N/A   Clear
5:51 PM 82.9 °F 83.3 °F 61.0 °F 47% 30.13 in 10.0 mi Variable 3.5 mph - N/A   Scattered Clouds
6:51 PM 82.0 °F 82.7 °F 61.0 °F 49% 30.13 in 10.0 mi Variable 4.6 mph - N/A   Scattered Clouds
7:51 PM 81.0 °F 81.6 °F 60.1 °F 49% - 10.0 mi South 4.6 mph - N/A   Scattered Clouds
8:51 PM 75.0 °F - 61.0 °F 62% - 10.0 mi Calm Calm - N/A   Clear
9:51 PM 72.0 °F - 62.1 °F 71% - 10.0 mi Calm Calm - N/A   Partly Cloudy
10:51 PM 73.0 °F - 61.0 °F 66% - 10.0 mi South 6.9 mph - N/A   Clear
11:51 PM 71.1 °F - 61.0 °F 70% - 10.0 mi SSE 4.6 mph - N/A   Clear